Temperature
18 17 17 17 17 17 17 17 16 16 16 16 16 16 15 15 15 15 15 15 15 15 15 15 14 14 14 14 14 14 14 14 14 14 14 14 13 13 13 13 13 13 13
18 17 17 17 17 17 16 16 16 16 16 16 16 16 15 15 15 15 15 15 15 15 15 15 14 14 14 14 14 14 14 13 13 14 14 14 14 13 13 13 13 13 13
18 18 17 17 17 17 16 16 16 16 16 16 16 16 16 15 15 15 15 15 15 15 15 15 14 14 14 14 14 14 14 13 13 13 14 15 15 13 13 13 13 13 13
18 18 18 17 17 17 17 16 16 16 16 16 16 16 15 15 15 15 15 15 15 15 15 15 14 14 14 14 14 14 13 13 13 13 13 14 14 14 14 13 13 13 13
18 18 17 17 17 17 17 16 16 16 16 16 16 15 15 15 15 15 15 15 15 15 15 14 14 14 14 14 13 13 13 13 13 13 13 13 13 13 14 13 12 12 12
18 18 17 17 17 17 16 16 16 16 16 16 15 15 15 15 15 15 15 15 15 15 14 14 14 14 14 14 14 13 13 13 13 13 13 13 13 13 13 14 13 12 12
18 18 17 17 17 16 16 16 16 16 16 16 15 15 15 15 15 15 15 15 14 14 14 14 14 14 14 14 13 13 13 13 13 13 13 13 13 13 13 13 13 13 12
18 18 17 17 16 16 16 16 16 16 16 16 15 15 15 15 15 14 14 14 14 14 14 14 14 14 14 13 13 13 13 13 13 13 13 13 12 13 12 12 13 13 12
18 17 17 17 16 16 16 16 16 16 16 15 15 15 15 15 14 14 14 14 14 14 14 14 14 14 13 13 13 13 13 13 13 12 12 12 12 12 12 12 12 13 13
18 17 17 16 16 16 16 16 16 16 15 15 15 15 15 14 14 14 14 14 14 14 14 14 13 13 13 13 13 13 13 13 12 13 12 12 12 12 12 12 12 12 12
18 17 16 16 16 16 16 15 15 15 15 15 15 15 15 14 14 14 14 14 14 13 13 13 13 13 13 13 13 13 12 12 12 12 12 12 12 12 12 12 12 12 12
17 17 16 16 16 15 15 15 15 15 15 15 15 14 14 14 14 14 14 14 13 13 13 13 13 13 13 13 13 12 12 12 12 12 12 12 12 12 12 12 11 11 11
17 16 16 16 15 15 15 15 15 15 15 15 14 14 14 14 14 13 13 13 13 13 13 13 13 13 12 12 12 12 12 12 12 12 11 11 11 11 11 11 11 11 11
16 16 15 15 15 15 15 15 15 15 14 14 14 14 14 13 13 13 13 13 13 13 12 12 12 12 12 12 12 12 12 12 12 12 11 11 11 11 11 11 11 11 11
16 16 15 15 15 15 15 15 14 14 14 14 14 13 13 13 13 13 13 12 12 12 12 12 12 12 12 12 12 12 12 12 11 11 11 11 11 11 11 11 11 11 11
16 15 15 15 15 15 15 14 14 14 14 14 13 13 13 13 13 12 12 12 12 12 12 12 12 12 12 12 12 11 11 11 11 11 11 11 11 11 11 11 11 11 10
15 15 15 15 15 15 15 14 14 14 13 13 13 13 13 12 12 12 12 12 12 12 11 11 11 11 11 11 11 11 11 11 11 11 10 10 11 10 10 10 10 10 10
15 15 15 15 14 14 14 14 14 14 13 13 13 13 13 12 12 12 12 11 11 11 11 11 11 11 11 11 11 11 11 10 10 10 10 10 10 10 10 10 10 10 10
15 15 15 14 14 14 14 14 13 13 13 13 13 12 12 12 12 11 11 11 11 11 11 11 11 10 10 10 10 10 10 10 10 10 10 10 10 10 10 9 9 9 9
14 14 14 14 14 14 13 13 13 13 12 12 12 12 11 11 11 11 11 11 11 11 11 10 10 10 10 10 10 10 10 9 9 10 10 10 10 9 9 9 9 9 9
14 14 14 14 13 13 13 13 12 12 12 12 11 11 11 11 11 10 10 10 10 10 10 10 10 10 10 10 10 9 9 9 9 9 9 9 10 9 9 9 9 9 9
13 13 13 13 13 13 13 12 12 12 12 11 11 11 11 10 10 10 10 10 9 9 9 9 9 9 9 9 9 9 9 9 8 9 9 9 9 9 9 9 9 8 8
13 13 13 12 12 12 12 12 12 11 11 11 11 10 10 10 10 10 10 9 9 9 9 9 9 9 9 9 9 9 9 9 8 8 8 8 9 9 8 8 8 8 8
12 12 12 12 12 11 11 11 11 10 10 10 10 10 10 10 10 9 9 9 9 8 8 8 8 8 8 8 8 8 8 8 8 8 8 8 8 8 8 8 8 8 8
12 11 11 11 11 11 10 10 10 10 10 10 9 9 9 9 9 9 9 9 8 8 8 8 8 8 8 8 8 8 8 8 7 7 7 7 7 7 7 7 7 7 7
11 11 11 11 10 10 10 10 9 9 9 9 9 9 9 9 8 8 8 8 8 8 8 8 8 7 8 8 8 8 7 7 7 7 6 6 7 7 7 7 7 7 7
Wind_Speed
7 6 6 5 5 4 4 5 5 5 4 3 3 2 2 1 1 1 2 2 2 2 2 2 2 2 1 2 2 2 2 1 1 2 3 3 3 3 4 3 3 5 5
8 7 7 6 6 5 5 5 5 5 5 3 3 2 2 1 1 1 1 2 2 2 2 2 2 2 2 2 3 3 1 1 1 1 2 2 3 2 2 2 3 3 4
8 8 8 7 7 6 6 5 6 6 5 4 3 2 2 1 2 2 1 1 2 3 3 3 2 2 2 2 3 3 3 2 1 1 2 1 1 2 2 2 2 3 2
8 8 8 7 7 7 6 6 6 6 6 6 5 4 3 3 2 2 2 2 3 3 4 4 4 3 2 3 3 3 3 3 2 1 1 2 1 2 2 2 1 2 1
9 8 8 8 7 7 6 6 6 5 5 5 5 5 4 3 2 2 3 3 3 3 4 4 4 4 3 3 3 3 3 3 3 2 2 1 1 3 2 2 2 2 1
9 9 8 7 7 6 6 6 6 5 5 5 5 6 5 4 4 3 3 3 3 3 4 4 4 4 4 4 4 4 4 3 3 3 3 3 2 3 3 3 3 2 2
9 9 8 7 7 7 6 6 6 6 5 5 5 6 5 5 5 4 4 4 3 3 4 4 4 4 4 4 4 5 4 4 4 4 3 3 3 3 3 3 3 2 2
8 8 9 8 8 7 7 7 7 6 5 5 5 5 5 4 4 4 4 4 3 3 3 4 4 4 4 4 4 5 5 4 4 4 4 3 3 3 3 4 3 3 3
8 8 8 8 8 8 8 7 7 7 6 6 5 5 5 5 4 4 3 3 3 3 3 4 4 4 4 4 4 4 5 4 4 4 4 4 3 3 3 4 4 4 4
7 7 7 8 8 7 7 7 7 7 6 6 5 4 5 5 4 4 4 3 3 3 4 4 4 5 5 5 5 5 5 5 4 3 4 4 3 3 3 4 4 5 5
6 6 6 7 7 7 7 7 7 6 6 6 5 5 5 4 4 4 4 3 3 3 4 5 4 5 5 5 5 5 5 6 5 5 5 5 4 4 4 4 4 4 4
5 6 6 6 6 6 6 6 6 6 6 5 5 5 5 5 5 4 4 4 3 3 4 4 4 4 5 5 5 6 6 6 6 6 6 6 4 5 4 4 5 4 5
4 5 6 6 7 7 6 6 6 5 5 5 5 5 5 5 5 5 4 4 4 4 4 4 4 4 5 5 5 6 6 6 6 6 6 6 6 6 4 5 5 4 4
5 5 5 6 6 7 6 6 5 5 5 5 5 5 5 5 5 4 4 4 4 3 3 4 4 5 5 5 5 6 6 6 6 6 6 6 6 6 5 5 5 4 4
4 5 5 5 6 6 6 6 5 5 5 5 5 5 5 5 4 4 4 4 4 4 4 4 4 4 4 4 4 5 6 6 6 6 6 6 5 3 4 4 4 5 4
4 4 5 5 6 6 6 6 6 6 6 6 5 5 4 4 4 4 4 4 4 4 4 4 4 4 3 2 3 5 5 6 6 6 6 6 6 6 6 5 5 5 6
4 4 4 5 5 6 6 6 6 5 6 5 5 5 5 4 4 4 4 4 4 4 4 4 5 5 4 3 4 5 6 6 6 6 6 5 5 7 7 8 8 7 7
3 4 3 3 4 4 5 5 5 5 5 5 5 5 5 5 4 4 4 5 4 4 5 5 5 5 4 3 4 5 7 6 6 6 7 6 6 6 7 7 8 8 8
2 3 3 3 3 3 4 5 5 5 5 5 5 5 5 4 4 5 5 5 4 5 5 5 5 5 5 3 4 5 6 6 6 6 6 7 7 4 5 7 8 8 7
1 1 1 2 2 3 4 5 5 5 5 5 5 5 5 5 5 5 5 4 4 4 4 5 5 6 6 3 4 6 5 6 6 5 6 6 6 4 6 8 8 8 8
2 1 1 1 1 2 4 5 5 5 4 4 4 4 5 5 5 4 4 4 4 4 4 5 5 6 6 4 4 6 6 6 6 6 6 5 5 6 8 9 8 8 7
2 1 1 1 1 2 4 4 4 4 4 4 4 4 4 4 4 4 4 4 4 5 5 5 5 5 5 5 5 6 8 7 7 6 6 4 4 7 8 7 7 6 6
2 1 1 2 2 2 3 4 4 3 3 4 4 4 4 4 4 5 5 4 4 5 5 5 5 5 4 4 5 7 8 8 7 6 5 5 5 7 7 8 8 7 6
2 2 2 2 2 2 3 4 3 3 4 4 4 4 4 4 4 4 4 4 4 5 5 5 5 5 4 4 4 4 5 7 8 7 6 6 7 7 6 6 7 6 6
3 3 3 3 3 3 3 3 3 4 4 5 4 4 4 4 4 4 4 5 5 4 5 5 5 5 5 4 4 4 5 5 5 5 5 5 5 5 5 5 5 5 6
3 3 3 3 3 3 3 3 4 4 5 5 5 4 4 4 4 4 4 3 5 4 5 6 7 6 5 4 4 5 6 6 5 5 6 6 6 6 6 6 6 6 6
Wind_Direction
198 192 194 197 189 185 189 180 184 179 173 177 186 187 183 190 184 169 177 173 168 159 148 153 141 132 135 151 151 143 141 128 137 139 121 100 81 72 71 58 57 62 59
200 195 196 195 197 197 202 198 197 193 188 190 194 190 188 200 198 203 204 198 188 179 182 181 170 163 164 181 180 180 193 158 188 226 201 172 146 101 77 73 61 63 73
207 200 200 202 201 202 205 208 207 201 198 194 187 167 164 181 191 207 208 206 204 203 203 195 192 189 195 198 205 203 206 197 193 275 284 260 218 145 127 86 82 67 66
209 204 203 203 203 205 205 209 208 205 200 195 201 206 213 218 222 210 198 197 202 206 211 205 203 202 212 217 219 217 226 219 210 199 286 312 320 239 183 163 129 86 65
207 204 204 205 205 202 202 207 206 205 200 205 206 215 223 228 219 206 200 205 203 211 215 216 211 210 216 223 225 225 233 228 234 220 201 212 240 261 249 207 183 168 148
204 202 199 202 204 198 196 201 202 201 201 208 211 216 221 225 223 225 218 214 208 215 218 217 217 215 217 222 226 226 224 233 231 233 227 228 233 234 238 234 210 205 178
202 200 198 201 204 201 201 201 202 202 203 209 215 218 223 227 230 234 231 228 222 220 221 220 222 222 223 224 225 229 230 226 228 233 235 235 249 252 245 242 232 230 205
201 200 200 199 201 202 203 204 205 207 207 212 218 221 222 228 238 239 240 234 235 234 228 225 224 223 221 223 224 229 227 224 223 230 235 234 237 240 245 247 243 241 230
197 199 198 199 198 200 201 202 203 206 207 214 218 220 222 223 231 238 238 240 233 226 229 231 227 219 215 219 220 224 219 219 223 222 223 232 230 234 241 247 251 255 254
198 198 197 198 198 198 200 201 204 207 209 214 215 215 217 220 229 231 231 236 230 219 223 233 230 222 216 214 216 223 222 221 221 227 229 230 234 231 230 237 247 258 263
200 197 191 190 193 193 195 198 204 210 213 218 219 216 216 218 221 227 231 232 225 226 229 230 230 223 217 217 216 224 221 225 223 224 228 228 228 232 225 226 233 239 243
196 190 184 183 187 191 194 199 204 208 211 217 219 217 213 211 215 221 224 226 226 229 235 231 227 227 224 219 217 221 222 225 227 227 229 230 224 234 234 227 228 230 237
184 184 184 187 190 192 194 200 206 210 208 209 211 211 209 210 213 221 221 220 222 227 232 230 229 230 231 226 223 222 224 227 231 232 232 231 226 229 229 232 234 231 233
189 187 190 193 196 197 198 201 206 206 203 200 204 207 211 213 215 219 220 222 223 229 233 233 233 232 232 231 231 230 229 231 233 236 236 236 234 234 229 228 232 231 228
197 195 198 198 199 201 203 206 208 205 202 202 208 212 216 214 217 218 222 225 225 236 241 240 238 235 230 231 238 235 233 234 233 233 233 233 240 259 243 235 230 226 232
208 206 206 204 205 205 206 206 206 204 201 205 210 210 214 210 214 219 224 227 227 233 235 240 242 240 232 216 240 254 240 237 235 236 236 230 223 225 226 236 240 238 235
220 219 223 218 217 212 210 209 207 201 201 206 210 210 210 211 217 220 222 225 225 227 235 238 242 243 236 202 215 237 249 243 243 242 239 234 231 224 228 219 217 228 241
238 236 234 229 225 216 207 204 201 201 204 207 211 211 212 215 218 220 226 233 234 228 236 240 244 250 243 208 220 226 240 245 245 245 244 241 241 230 234 229 225 229 225
257 249 244 231 217 211 203 196 196 200 205 209 213 212 212 216 217 223 230 235 236 234 235 240 244 246 246 221 229 233 239 245 245 246 244 244 245 219 223 236 236 238 236
298 278 252 225 209 207 203 201 203 207 216 219 220 217 216 219 223 229 233 233 236 240 243 242 243 246 252 235 231 240 240 244 245 245 244 238 247 224 208 233 241 243 243
325 316 248 222 224 211 201 211 217 223 227 226 223 221 221 225 227 231 233 232 235 244 249 249 248 249 253 234 221 234 244 248 247 245 245 242 218 231 223 233 244 248 253
333 296 245 246 239 215 205 212 226 232 225 222 225 228 229 229 224 225 232 237 239 245 250 253 256 255 250 247 233 229 242 264 253 254 254 248 208 226 233 237 250 253 245
315 293 265 261 262 240 223 227 237 234 222 217 223 230 234 233 232 229 231 236 239 245 251 252 256 260 259 244 226 233 239 246 252 261 275 269 238 231 231 233 236 235 238
314 304 284 272 276 270 253 252 256 238 227 232 238 237 238 240 240 241 240 242 246 250 254 255 258 261 257 258 256 250 246 234 243 258 257 240 233 236 247 239 230 232 236
307 296 281 276 276 276 268 261 253 242 237 240 245 247 246 247 247 244 245 246 250 259 260 259 261 261 259 268 289 271 263 262 258 260 255 252 246 241 239 241 240 236 235
310 299 294 289 284 280 276 272 260 250 247 249 249 248 247 246 245 247 254 252 248 259 262 271 274 267 268 288 273 269 269 267 264 256 248 247 246 245 245 244 244 242 240
Height
1543 1544 1545 1547 1548 1549 1550 1551 1551 1552 1552 1553 1554 1554 1554 1554 1554 1554 1554 1554 1554 1555 1555 1555 1555 1555 1555 1555 1555 1555 1555 1555 1555 1556 1556 1556 1555 1555 1554 1554 1554 1554 1553
1541 1542 1544 1545 1546 1548 1549 1550 1550 1551 1552 1552 1553 1553 1554 1554 1554 1554 1554 1554 1554 1554 1554 1555 1555 1555 1555 1555 1555 1555 1555 1555 1555 1556 1556 1557 1557 1555 1555 1554 1554 1554 1553
1538 1540 1542 1543 1545 1546 1547 1548 1549 1550 1551 1551 1552 1552 1553 1553 1553 1553 1553 1553 1553 1554 1554 1554 1554 1554 1554 1554 1554 1554 1554 1555 1555 1555 1556 1556 1555 1556 1556 1555 1554 1553 1553
1535 1537 1539 1541 1543 1544 1545 1547 1548 1549 1549 1550 1551 1552 1552 1552 1552 1552 1552 1552 1552 1553 1553 1553 1553 1553 1553 1553 1554 1553 1553 1554 1554 1554 1554 1555 1555 1555 1555 1555 1554 1553 1553
1532 1535 1537 1539 1540 1542 1543 1545 1546 1547 1548 1548 1549 1550 1551 1551 1551 1551 1551 1551 1551 1551 1552 1552 1552 1552 1552 1552 1552 1552 1552 1552 1553 1553 1553 1553 1553 1554 1554 1554 1554 1553 1552
1530 1532 1534 1536 1538 1539 1541 1542 1543 1545 1546 1547 1547 1548 1549 1549 1549 1549 1549 1550 1550 1550 1550 1550 1550 1550 1550 1550 1550 1550 1550 1550 1551 1551 1552 1552 1552 1552 1553 1552 1552 1552 1551
1527 1529 1531 1533 1535 1536 1538 1539 1541 1542 1543 1544 1545 1546 1547 1547 1548 1548 1547 1548 1548 1548 1548 1548 1548 1548 1548 1548 1548 1548 1549 1549 1549 1549 1550 1550 1550 1551 1551 1551 1551 1551 1550
1524 1526 1528 1530 1532 1533 1535 1537 1538 1539 1541 1542 1543 1544 1545 1545 1546 1546 1545 1545 1545 1545 1546 1546 1546 1546 1546 1546 1546 1546 1547 1547 1547 1547 1547 1547 1548 1548 1548 1549 1549 1549 1549
1521 1523 1525 1527 1529 1531 1532 1534 1536 1537 1539 1540 1541 1541 1542 1543 1543 1543 1543 1543 1543 1543 1543 1543 1544 1544 1544 1544 1544 1544 1545 1545 1545 1545 1545 1545 1545 1545 1546 1546 1547 1548 1547
1519 1521 1522 1524 1526 1528 1530 1532 1533 1535 1536 1537 1538 1539 1539 1540 1540 1541 1541 1540 1540 1540 1541 1541 1541 1541 1541 1541 1542 1542 1542 1542 1542 1542 1543 1542 1543 1543 1543 1543 1544 1544 1545
1516 1518 1520 1522 1524 1526 1527 1529 1530 1532 1533 1534 1535 1536 1537 1537 1538 1538 1538 1538 1538 1538 1538 1538 1538 1539 1539 1539 1539 1539 1540 1540 1540 1540 1540 1540 1540 1540 1540 1540 1540 1541 1541
1515 1516 1518 1519 1521 1523 1525 1526 1528 1529 1530 1531 1532 1533 1534 1534 1534 1535 1535 1535 1535 1535 1535 1535 1535 1535 1536 1536 1536 1536 1537 1537 1537 1537 1537 1537 1537 1537 1537 1537 1537 1538 1538
1513 1514 1516 1517 1519 1520 1522 1523 1525 1526 1527 1528 1529 1530 1531 1531 1531 1532 1532 1532 1532 1532 1532 1532 1532 1532 1532 1533 1533 1533 1533 1534 1534 1534 1534 1534 1534 1534 1534 1534 1534 1534 1535
1512 1512 1513 1515 1516 1518 1519 1520 1522 1523 1524 1525 1526 1526 1527 1528 1528 1528 1529 1529 1529 1529 1529 1529 1529 1529 1529 1529 1529 1530 1530 1530 1530 1530 1530 1531 1531 1531 1531 1531 1531 1531 1531
1510 1510 1511 1512 1514 1515 1516 1517 1519 1520 1521 1521 1522 1523 1524 1524 1525 1525 1525 1526 1526 1526 1526 1526 1526 1526 1526 1526 1526 1526 1526 1527 1527 1527 1527 1527 1527 1527 1527 1528 1528 1528 1528
1508 1508 1509 1510 1511 1512 1513 1515 1516 1517 1517 1518 1519 1520 1521 1521 1521 1522 1522 1522 1522 1522 1523 1523 1523 1523 1522 1522 1522 1522 1523 1523 1523 1523 1523 1523 1523 1523 1523 1524 1524 1524 1525
1506 1507 1507 1508 1508 1509 1511 1512 1513 1514 1514 1515 1516 1516 1517 1517 1518 1518 1519 1519 1519 1519 1519 1519 1519 1519 1519 1519 1519 1519 1519 1519 1519 1520 1520 1519 1519 1519 1520 1520 1520 1520 1520
1504 1505 1505 1506 1506 1507 1508 1509 1510 1511 1511 1512 1513 1513 1513 1514 1515 1515 1515 1516 1516 1516 1515 1515 1515 1515 1515 1515 1515 1515 1516 1516 1516 1516 1516 1516 1516 1516 1516 1516 1516 1516 1516
1502 1503 1503 1503 1504 1504 1505 1506 1507 1507 1508 1508 1509 1510 1510 1511 1511 1511 1512 1512 1512 1512 1512 1512 1511 1511 1511 1511 1511 1511 1512 1512 1512 1512 1512 1512 1512 1511 1512 1512 1512 1512 1511
1501 1501 1501 1501 1501 1501 1502 1503 1504 1504 1505 1505 1506 1507 1507 1507 1508 1508 1508 1509 1509 1508 1508 1508 1507 1507 1507 1507 1507 1507 1508 1507 1507 1507 1507 1507 1507 1507 1507 1507 1508 1507 1507
1499 1499 1499 1499 1499 1499 1500 1500 1501 1501 1502 1502 1503 1503 1504 1504 1504 1505 1505 1505 1505 1505 1504 1504 1503 1503 1503 1502 1502 1502 1503 1503 1503 1502 1502 1502 1502 1502 1502 1502 1503 1502 1503
1497 1497 1497 1496 1496 1497 1497 1497 1497 1498 1498 1499 1499 1499 1500 1500 1500 1501 1501 1501 1501 1501 1500 1500 1499 1499 1498 1498 1497 1497 1498 1498 1498 1498 1498 1497 1497 1497 1497 1497 1497 1498 1498
1496 1495 1495 1494 1494 1494 1494 1494 1494 1495 1495 1495 1495 1495 1496 1496 1497 1497 1497 1497 1496 1496 1496 1496 1495 1494 1494 1493 1493 1493 1493 1493 1493 1493 1493 1492 1492 1492 1492 1492 1492 1492 1492
1494 1493 1492 1492 1492 1491 1491 1491 1491 1491 1491 1491 1491 1492 1492 1492 1492 1492 1492 1492 1492 1492 1492 1491 1490 1490 1489 1489 1489 1488 1488 1488 1488 1488 1487 1487 1487 1487 1487 1487 1487 1486 1486
1492 1491 1490 1489 1489 1488 1488 1488 1488 1488 1488 1488 1488 1488 1488 1488 1488 1488 1487 1487 1487 1487 1487 1487 1486 1485 1484 1484 1484 1483 1483 1482 1482 1482 1482 1482 1482 1481 1481 1481 1481 1481 1480
1490 1489 1488 1487 1486 1485 1485 1484 1484 1484 1484 1484 1483 1483 1483 1483 1483 1482 1482 1482 1482 1481 1481 1481 1481 1480 1480 1479 1478 1478 1478 1477 1477 1477 1477 1476 1476 1476 1475 1475 1475 1475 1475